FW1340 Weather Reports


Display with metric or nautical units.
time (UTC)temp
F
wind
direction
speed
MPH
gust
MPH
rain 1hr
in
rain 24hr
in
rain mn
in
humidity
%
barometer
mb
20260901123038 51 132 0.0 0.0 0.00 0.00 0.00 88 1013.9
20260901121536 52 146 0.0 0.0 0.00 0.00 0.00 89 1013.9
20260901120049 51 159 0.0 0.0 0.00 0.00 0.00 87 1013.9
20260901114539 52 191 0.0 0.0 0.00 0.00 0.00 87 1013.9
20260901113053 52 126 0.0 0.0 0.00 0.00 0.00 86 1013.6
20260901111529 52 161 0.0 0.0 0.00 0.00 0.00 85 1013.5
20260901110027 53 177 0.0 0.0 0.00 0.00 0.00 85 1013.6
20260901104528 53 163 0.0 0.0 0.00 0.00 0.00 85 1013.5
20260901103022 54 161 0.0 0.0 0.00 0.00 0.00 84 1013.4
20260901101524 54 142 0.0 0.0 0.00 0.00 0.00 83 1013.3
20260901100016 55 168 0.0 0.0 0.00 0.00 0.00 83 1013.5
20260901094516 55 184 0.0 0.0 0.00 0.00 0.00 82 1013.5
20260901093019 56 157 0.0 0.0 0.00 0.00 0.00 82 1013.4
20260901091512 56 199 0.0 0.0 0.00 0.00 0.00 82 1013.4
20260901090014 56 209 0.0 0.0 0.00 0.00 0.00 82 1013.5
20260901084524 57 198 0.0 0.0 0.00 0.00 0.00 81 1013.5
20260901083008 57 198 0.0 0.0 0.00 0.00 0.00 81 1013.5
20260901081505 57 218 0.0 0.0 0.00 0.00 0.00 81 1013.6
20260901080004 57 214 0.0 0.0 0.00 0.00 0.00 80 1013.7
20260901074501 58 215 0.0 0.0 0.00 0.00 0.00 80 1013.5
20260901073103 58 212 0.0 0.0 0.00 0.00 0.00 80 1013.4
20260901071555 59 216 0.0 0.0 0.00 0.00 0.00 79 1013.4
20260901070100 59 241 0.0 0.0 0.00 0.00 0.00 78 1013.4
20260901064553 60 246 0.0 0.0 0.00 0.00 0.00 78 1013.4
20260901063051 60 258 0.0 0.0 0.00 0.00 0.00 77 1013.4
20260901061552 60 252 0.0 0.0 0.00 0.00 0.00 78 1013.4
20260901060051 60 228 0.0 0.0 0.00 0.00 0.00 78 1013.4
20260901054550 60 256 0.0 0.0 0.00 0.00 0.00 78 1013.3
20260901053105 60 272 0.0 0.0 0.00 0.00 0.00 77 1013.1
20260901051549 60 286 0.0 0.0 0.00 0.00 0.00 77 1013.1
20260901050048 60 294 0.0 0.0 0.00 0.00 0.00 77 1013.0
20260901044614 61 273 0.0 0.0 0.00 0.00 0.00 76 1013.0
20260901043046 61 248 0.0 0.0 0.00 0.00 0.00 76 1012.9
20260901041546 61 286 0.0 0.0 0.00 0.00 0.00 76 1012.8
20260901040045 61 236 0.0 0.0 0.00 0.00 0.00 76 1012.5
20260901034552 62 269 0.0 0.0 0.00 0.00 0.00 76 1012.3
20260901033046 62 260 0.0 0.0 0.00 0.00 0.00 75 1012.1
20260901031548 62 270 0.0 0.0 0.00 0.00 0.00 74 1011.9
20260901030046 63 267 0.0 0.0 0.00 0.00 0.00 73 1011.7
20260901024544 63 229 0.0 0.0 0.00 0.00 0.00 72 1011.6
20260901023043 64 248 0.0 0.0 0.00 0.00 0.00 70 1011.7
20260901021606 66 250 0.0 0.0 0.00 0.00 0.00 68 1011.6
20260901020101 67 262 0.0 0.0 0.00 0.00 0.00 66 1011.5
20260901014543 68 275 0.0 0.0 0.00 0.00 0.00 63 1011.4
20260901013043 69 265 0.0 0.0 0.00 0.00 0.00 63 1011.3
20260901011639 70 265 0.0 0.0 0.00 0.00 0.00 61 1011.2
20260901010042 71 248 0.0 0.0 0.00 0.00 0.00 58 1011.1
20260901004541 73 267 0.0 0.0 0.00 0.00 0.00 57 1011.1
20260901003043 73 269 0.0 0.0 0.00 0.00 0.00 56 1011.2
20260901001550 74 276 0.0 0.0 0.00 0.00 0.00 55 1011.2
20260901000044 75 263 0.0 0.0 0.00 0.00 0.00 54 1011.2
20260831234547 75 279 0.0 0.0 0.00 0.00 0.00 53 1011.1
20260831233044 76 268 0.0 0.0 0.00 0.00 0.00 52 1011.2
20260831231535 77 274 0.0 0.0 0.00 0.00 0.00 50 1011.2
20260831230034 77 246 0.0 0.0 0.00 0.00 0.00 50 1011.3
20260831224534 78 262 0.0 0.0 0.00 0.00 0.00 50 1011.4
20260831223034 78 236 0.0 0.0 0.00 0.00 0.00 49 1011.5
20260831221532 78 252 0.0 0.0 0.00 0.00 0.00 50 1011.5
20260831220034 78 266 0.0 0.0 0.00 0.00 0.00 51 1011.7
20260831214535 79 263 0.0 0.0 0.00 0.00 0.00 49 1011.7
20260831213037 80 309 0.0 0.0 0.00 0.00 0.00 48 1011.9
20260831211528 79 234 0.0 0.0 0.00 0.00 0.00 46 1012.1
20260831210025 78 200 0.0 0.0 0.00 0.00 0.00 47 1012.0
20260831204522 78 221 0.0 0.0 0.00 0.00 0.00 48 1012.1
20260831203019 77 263 0.0 0.0 0.00 0.00 0.00 50 1012.3
20260831201517 76 241 0.0 0.0 0.00 0.00 0.00 51 1012.3
20260831200021 75 254 0.0 0.0 0.00 0.00 0.00 53 1012.5
20260831194515 74 261 0.0 0.0 0.00 0.00 0.00 52 1012.7
20260831193009 74 255 0.0 0.0 0.00 0.00 0.00 55 1012.8
20260831191504 73 293 0.0 0.0 0.00 0.00 0.00 57 1013.0
20260831190005 72 265 0.0 0.0 0.00 0.00 0.00 59 1013.0
20260831184628 71 238 0.0 0.0 0.00 0.00 0.00 59 1013.1
20260831183103 70 272 0.0 0.0 0.00 0.00 0.00 60 1013.2
20260831181551 69 238 0.0 0.0 0.00 0.00 0.00 64 1013.1
20260831180048 68 260 0.0 0.0 0.00 0.00 0.00 66 1013.2
20260831174549 67 267 0.0 0.0 0.00 0.00 0.00 68 1013.2
20260831173054 67 248 0.0 0.0 0.00 0.00 0.00 68 1013.1
20260831171539 66 273 0.0 0.0 0.00 0.00 0.00 69 1013.0
20260831170037 66 273 0.0 0.0 0.00 0.00 0.00 69 1012.8
20260831164537 65 249 0.0 0.0 0.00 0.00 0.00 71 1012.8
20260831163031 65 261 0.0 0.0 0.00 0.00 0.00 73 1012.8
20260831161527 64 252 0.0 0.0 0.00 0.00 0.00 75 1012.8
20260831160029 63 275 0.0 0.0 0.00 0.00 0.00 77 1012.8
20260831154521 62 277 0.0 0.0 0.00 0.00 0.00 79 1012.7
20260831153016 61 269 0.0 0.0 0.00 0.00 0.00 81 1012.8
20260831151515 59 259 0.0 0.0 0.00 0.00 0.00 84 1012.7
20260831150014 58 277 0.0 0.0 0.00 0.00 0.00 87 1012.6
20260831144517 56 295 0.0 0.0 0.00 0.00 0.00 90 1012.3
20260831143005 53 74 0.0 0.0 0.00 0.00 0.00 90 1012.2
20260831141501 52 74 0.0 0.0 0.00 0.00 0.00 88 1012.0
20260831140056 51 74 0.0 0.0 0.00 0.00 0.00 85 1011.8
20260831134558 53 305 0.0 0.0 0.00 0.00 0.00 83 1011.6
20260831133049 53 305 0.0 0.0 0.00 0.00 0.00 83 1011.4
20260831131547 54 305 0.0 0.0 0.00 0.00 0.00 84 1011.3
20260831130049 54 296 0.0 0.0 0.00 0.00 0.00 85 1011.4
20260831124542 55 315 0.0 0.0 0.00 0.00 0.00 85 1011.1